Regional Weather Roundup
Issued by NWS State College, PA

Home | Current Version | Previous Version | Text Only | Print | Product List | Glossary On
Versions: 1 2 3 4 5 6 7 8 9 10 11 12 13 14 15 16 17 18 19 20 21 22 23 24 25 26 27 28 29 30 31 32 33 34 35 36 37 38 39 40 41 42 43 44 45 46 47 48 49 50
000
ASUS41 KCTP 030703
RWRCTP

REGIONAL WEATHER ROUNDUP
NATIONAL WEATHER SERVICE STATE COLLEGE PA
300 AM EDT THU SEP 03 2015

Note: "fair" indicates few or no clouds below 12,000 feet with no
significant weather and/or obstructions to visibility.

* = STATION THAT DOES NOT REPORT PRECIPITATION /E.G. RAIN...SNOW...ETC/
    THUNDER OR FOG.

PAZ002>004-007>009-013>016-020>023-029>032-030800-
WESTERN PENNSYLVANIA

CITY           SKY/WX    TMP DP  RH WIND       PRES   REMARKS
ERIE           PTCLDY    71  66  84 S5        29.94F
MEADVILLE      PTCLDY    70  65  84 CALM      29.99F
FRANKLIN*      PTCLDY    66  64  94 S3        30.01F
NEW CASTLE     FAIR      67  67 100 CALM      29.99F FOG
BEAVER COUNTY  NOT AVBL
BUTLER*        PTCLDY    66  63  88 CALM      30.00F
PITTSBURGH INT MOCLDY    71  66  84 SW5       29.99F
PITTSBURGH     PTCLDY    70  63  78 S8        29.99F
INDIANA*       CLEAR     68  66  94 CALM      30.03F
LATROBE        NOT AVBL
WASHINGTON CO* PTCLDY    64  63  94 CALM      30.01F
$$

PAZ004>006-010>012-017>019-024>028-033>037-041-042-045-046-049>053-030800-
CENTRAL PENNSYLVANIA

CITY           SKY/WX    TMP DP  RH WIND       PRES   REMARKS
BRADFORD       FOG       59  57  93 CALM      30.02S VSB 3/4
DUBOIS         PTCLDY    68  65  90 CALM      30.00F FOG
CLEARFIELD     MOCLDY    67  65  93 CALM      30.00F FOG
JOHNSTOWN      PTCLDY    67  63  87 SW6       30.03F
ALTOONA        CLEAR     68  64  87 SW5       30.00F
STATE COLLEGE  PTCLDY    67  65  95 CALM      29.97F FOG
WILLIAMSPORT   PTCLDY    70  66  87 NW5       29.92F FOG
SELINSGROVE    CLEAR     67  65  93 CALM      29.92F FOG
FT INDIANTOWN  CLEAR     67  66  97 CALM      29.90F
CAPITAL CITY   CLEAR     72  65  78 W5        29.91F
HARRISBURG     PTCLDY    74  66  76 NW9       29.90F
YORK           CLEAR     64  63  96 CALM      29.91F FOG
$$

PAZ038>040-043-044-047-048-054-055-060>062-067>071-030800-
EASTERN PENNSYLVANIA

CITY           SKY/WX    TMP DP  RH WIND       PRES   REMARKS
SCRANTON       PTCLDY    67  62  84 E5        29.93F
MOUNT POCONO   CLEAR     66  61  84 NW7       29.97F
ALLENTOWN      CLEAR     71  65  81 CALM      29.89F
QUAKERTOWN*    SUNNY     64  63  94 CALM      29.91F
READING        CLEAR     69  65  86 CALM      29.89F FOG
LANCASTER      CLEAR     70  67  90 CALM      29.90F FOG
COATESVILLE    SUNNY     72  66  83 NW5       29.91F
POTTSTOWN      CLEAR     67  65  93 CALM      29.91F
BLUE BELL      CLEAR     66  64  94 CALM      29.88F
DOYLESTOWN     CLEAR     68  65  90 CALM      29.88F
WILLOW GROVE   NOT AVBL
NORTH PHILA    CLEAR     74  62  66 NW5       29.89F
PHILADELPHIA   CLEAR     78  65  63 CALM      29.88F
$$



USA.gov is the U.S. government's official web portal to all federal, state and local government web resources and services.